Location: Mexico
(19.4000°N, 99.1500°W)
Time: 16:48:34
(UTC-06:00)

ISS - Pass Details

Date: 19 February 2020
Orbit: 415 x 422 km, 51.6° (Epoch: 27 February)

Event Time Altitude Azimuth Distance (km) Brightness Sun altitude
Exits shadow 06:31:47 - 238° (WSW) 1,941 -0.8 -8.1°
Reaches altitude 10° 06:32:58 10° 244° (WSW) 1,487 -1.5 -7.8°
Maximum altitude 06:36:02 34° 311° (NW) 707 -3.0 -7.1°
Drops below altitude 10° 06:39:08 10° 18° (NNE) 1,494 -0.8 -6.4°
Sets 06:41:21 0° 28° (NNE) 2,360 0.3 -5.9°
